GFSSGP_prec_cloud_273.txt.gz
Cloud_Cover
0 56 99 100 100 60 7 80 99 5 5 5 2 80 99 96 100 100 100 100 100 100 78 98 100 100 92 10 89 100 20 5 5 4 5 17 5 5 5 4 14 11 99 100 5 100 44 10 5
0 0 0 6 70 32 47 16 17 54 5 0 59 61 96 90 98 100 100 100 100 100 99 98 100 100 100 100 100 46 100 9 5 5 2 2 6 5 5 3 2 86 100 99 100 4 14 86 0
0 0 0 0 0 0 44 96 89 94 40 14 100 56 99 99 94 100 100 100 100 100 100 100 100 100 100 100 60 96 100 100 93 86 36 4 8 5 5 38 5 98 100 100 100 95 83 21 9
0 0 0 0 0 0 0 0 7 100 76 30 55 54 83 93 93 49 100 96 100 100 100 100 100 100 100 100 100 100 100 100 100 100 100 100 100 100 100 100 100 100 100 93 100 60 68 0 5
0 0 0 0 0 0 0 0 0 0 0 1 13 74 100 98 1 7 36 63 100 100 100 100 100 100 100 100 100 100 100 100 100 100 100 100 100 100 100 100 100 96 87 100 100 100 13 3 5
0 0 0 0 0 0 0 0 0 0 0 0 0 0 34 92 3 1 48 98 100 100 100 100 100 100 100 100 100 100 100 100 100 100 100 100 100 100 100 96 100 100 99 100 100 98 63 13 79
0 0 0 0 0 0 0 0 0 0 0 0 0 0 10 12 0 0 73 100 100 100 100 100 100 100 100 100 100 100 100 100 100 100 100 100 100 100 100 100 100 100 100 100 94 95 70 29 5
0 0 0 0 0 0 0 0 0 0 0 0 0 0 0 0 0 0 19 91 99 99 100 100 100 100 100 100 100 100 100 100 100 100 100 100 100 100 100 100 91 100 100 98 86 100 90 83 5
0 0 0 0 0 0 0 0 0 0 0 0 0 0 0 0 0 0 0 7 6 13 73 100 100 100 100 100 100 100 100 100 100 100 100 100 76 100 100 100 100 100 100 100 100 100 100 100 100
0 0 0 0 0 0 0 0 0 0 0 2 0 0 0 0 0 0 0 0 0 0 16 14 90 100 100 100 100 95 100 100 100 100 100 100 91 100 100 100 100 100 100 100 100 100 99 94 100
0 0 0 0 0 0 0 0 0 0 0 0 0 0 0 0 0 0 0 0 0 0 0 0 8 100 100 100 100 84 100 100 100 100 100 100 100 100 100 100 100 100 100 100 100 100 100 90 100
0 0 0 0 0 0 0 0 0 0 0 0 0 0 0 0 0 0 0 0 0 0 0 0 14 99 100 100 100 92 100 100 100 100 100 100 100 95 91 99 100 100 100 100 100 100 100 100 100
0 0 0 0 0 0 0 0 0 0 0 0 0 0 0 0 0 0 0 0 0 2 7 8 10 42 97 75 100 96 100 100 100 100 100 100 100 100 100 100 100 100 100 100 100 100 100 99 100
0 0 0 0 0 0 0 0 0 0 0 0 0 0 0 0 0 0 0 0 0 5 9 8 6 79 100 94 66 92 100 100 100 100 100 100 100 100 100 100 100 100 100 100 100 100 100 97 100
1 0 0 0 0 0 0 0 0 0 0 0 0 0 0 0 0 0 0 0 1 28 5 67 16 93 92 92 31 77 89 100 100 100 100 100 100 100 100 100 100 100 100 100 100 100 100 100 100
0 0 0 0 0 0 0 0 0 0 0 0 0 0 0 0 0 0 0 5 9 4 8 89 5 98 62 47 20 90 100 100 100 100 100 100 100 100 100 100 94 93 76 89 95 100 100 100 100
0 0 0 0 0 0 0 0 0 0 0 0 0 0 0 0 0 0 61 17 38 5 0 10 73 89 56 14 21 85 100 100 100 100 100 100 100 100 100 100 100 100 100 100 93 91 100 100 100
0 0 0 0 0 0 0 0 0 0 0 0 0 0 0 0 0 0 36 67 6 32 0 0 18 94 89 10 5 77 100 95 100 100 100 100 100 100 100 100 100 93 63 100 100 100 100 100 97
5 0 0 0 0 0 1 0 0 0 0 0 0 0 0 0 0 0 0 97 100 5 45 0 0 25 5 5 12 80 100 100 100 100 100 100 100 100 100 100 100 100 65 99 100 40 66 86 94
5 0 0 0 0 2 4 4 0 0 0 0 0 0 0 0 0 0 0 46 98 100 57 17 1 0 0 71 22 77 100 100 100 100 100 100 100 100 100 100 100 100 100 48 46 100 77 84 92
4 0 0 0 0 5 5 15 4 0 0 0 0 0 0 0 0 0 0 0 10 36 6 82 5 1 37 100 5 96 100 100 100 100 100 100 100 100 100 100 100 100 95 71 71 62 68 89 88
1 0 0 0 4 5 5 58 47 0 0 0 0 0 0 0 0 0 0 0 1 1 8 1 22 84 100 37 26 100 100 100 100 100 100 100 100 100 100 100 100 100 100 100 83 61 54 72 91
5 0 0 5 5 5 5 100 100 0 0 0 0 0 0 0 0 0 0 0 0 0 93 100 100 100 99 18 56 98 100 100 100 100 100 100 100 100 100 100 100 100 100 99 99 100 75 92 97
6 5 2 19 30 28 5 100 100 0 0 0 0 0 0 0 0 0 0 0 0 0 22 69 86 100 72 99 100 100 100 100 100 100 100 100 100 100 100 100 100 100 100 100 100 100 97 100 100
66 16 98 64 100 40 19 100 100 0 0 0 0 0 0 0 0 0 0 0 0 0 1 98 100 100 98 100 100 100 100 100 100 100 100 100 100 100 100 100 100 100 100 100 100 100 100 100 100
98 82 62 64 100 99 77 100 83 0 3 0 0 0 0 0 0 0 0 0 0 0 0 6 100 100 100 100 100 100 100 100 100 100 100 100 100 100 100 100 100 100 100 100 100 100 100 100 100
100 8 10 82 100 60 84 100 18 0 0 0 0 0 0 0 0 0 0 0 0 0 0 0 5 100 100 100 100 100 100 100 100 100 100 100 100 100 100 100 100 100 100 100 100 100 100 100 100
99 33 23 100 86 10 88 100 5 4 0 2 0 0 0 0 0 0 0 0 0 0 0 0 16 88 100 100 100 100 100 100 100 100 100 100 100 100 100 100 100 100 100 100 100 100 100 100 100
100 91 94 100 59 6 100 93 5 2 3 2 0 0 0 0 0 0 0 0 0 0 0 0 0 7 100 100 100 100 100 100 100 100 100 100 100 100 100 100 100 100 100 100 100 100 100 100 100
100 100 94 100 14 5 98 40 5 2 5 0 0 0 0 0 0 0 0 0 0 0 0 0 0 0 71 100 100 100 100 100 100 100 100 100 100 100 100 100 100 100 100 100 100 100 100 100 100

GFSSGP_prec_cloud_276.txt.gz
Cloud_Cover
0 0 61 100 100 100 76 9 5 23 91 39 50 2 29 94 100 100 100 100 100 100 100 100 84 100 49 100 100 100 99 93 54 96 80 98 48 5 5 9 92 96 100 14 78 71 2 4 4
0 0 0 0 76 100 100 100 100 100 99 53 85 99 20 62 96 100 100 100 100 100 100 100 89 100 92 98 100 100 100 100 100 95 98 78 89 5 5 77 83 99 100 100 50 94 0 2 95
0 0 0 0 0 0 20 88 100 100 100 100 100 85 80 17 99 100 100 88 100 100 100 100 100 93 100 95 100 100 100 100 100 100 100 44 69 83 5 93 52 100 76 98 1 96 44 17 5
0 0 0 0 0 0 0 0 0 0 3 26 3 41 67 64 28 13 31 67 93 100 100 100 100 100 100 100 100 100 100 100 100 100 100 100 100 100 99 35 16 5 99 100 99 48 100 100 88
0 0 0 0 0 0 0 0 0 0 0 0 0 39 6 71 54 8 10 75 100 86 100 100 100 100 100 100 100 100 100 100 100 100 100 100 100 100 100 100 100 30 75 100 100 100 100 16 14
0 0 0 0 0 0 0 0 0 0 0 0 0 0 27 42 0 0 11 100 100 88 100 98 100 100 100 100 100 100 100 100 100 100 100 100 100 100 100 100 100 82 57 68 100 100 97 72 35
0 0 0 0 0 0 0 0 0 0 0 0 0 0 0 22 0 0 1 97 100 28 46 99 99 96 100 100 100 100 100 100 100 100 100 100 100 100 100 100 100 100 100 100 100 100 100 80 39
0 0 0 0 0 0 0 0 0 0 0 0 0 0 0 0 0 0 0 0 0 4 0 5 89 100 98 100 100 100 100 100 100 100 100 100 100 100 100 100 100 100 100 100 100 100 100 97 100
0 0 0 0 0 0 0 0 0 0 0 0 0 0 0 0 0 0 0 0 0 0 0 0 0 16 100 100 100 100 100 100 100 100 100 100 100 100 100 100 100 100 100 100 100 100 100 100 100
0 0 0 0 0 0 0 0 0 0 0 0 0 0 0 0 0 0 0 0 0 0 0 0 0 0 35 54 100 100 98 100 100 100 100 100 100 100 100 100 100 100 100 100 100 100 100 100 100
0 0 0 0 0 0 0 0 0 0 0 0 0 0 0 0 0 0 0 0 0 0 0 0 0 0 0 70 100 99 100 100 100 100 100 100 100 100 100 100 100 100 100 100 100 100 100 100 99
0 2 0 0 0 0 0 0 0 0 0 0 0 0 0 0 0 0 0 0 0 0 0 0 0 0 0 71 98 75 99 94 100 100 100 100 100 100 100 100 100 100 100 100 100 100 100 100 100
5 5 5 1 0 0 0 0 0 0 0 0 0 0 0 0 0 0 0 0 0 0 0 0 0 2 3 38 100 57 11 12 100 100 100 100 100 100 100 100 100 100 100 100 100 100 100 100 100
10 5 7 0 0 0 0 0 0 0 0 0 0 0 0 0 0 0 0 0 0 0 0 0 0 5 5 8 100 100 98 100 100 100 100 100 100 100 100 100 100 100 100 100 100 100 100 100 100
5 5 4 0 0 0 0 0 0 0 0 0 0 0 0 0 0 0 0 0 0 0 0 5 4 5 10 89 91 94 100 100 100 100 100 100 100 100 100 100 100 100 100 97 100 100 100 100 100
16 6 5 5 3 0 0 0 0 0 0 0 0 0 0 0 0 0 0 0 5 4 0 0 0 5 11 60 5 32 100 100 100 100 100 100 100 100 100 100 100 100 94 99 81 100 100 100 100
14 10 95 5 5 0 0 0 0 2 0 0 0 0 0 0 0 0 0 0 15 20 8 0 0 4 77 5 6 9 100 100 100 100 100 100 100 100 100 100 100 100 100 100 100 100 91 100 100
100 5 98 3 0 0 0 0 5 3 5 0 0 0 0 0 0 0 0 0 0 100 14 11 0 1 66 5 39 5 100 100 89 100 100 100 100 100 100 100 100 100 100 100 100 96 100 67 100
68 5 71 5 0 0 0 0 5 5 5 0 0 0 0 0 0 0 0 0 0 50 36 81 5 0 24 5 5 5 90 98 88 94 100 100 100 100 100 100 100 100 100 100 100 66 95 10 53
63 39 26 5 5 0 0 0 37 26 5 0 0 0 0 0 0 0 0 0 0 3 5 25 4 1 0 1 1 2 29 69 98 95 100 100 100 100 100 100 100 100 100 100 100 75 85 62 35
12 91 91 9 3 0 0 2 99 53 5 0 0 0 0 0 0 0 0 0 0 0 3 0 7 2 0 0 0 0 45 100 100 100 100 100 100 100 100 100 100 100 100 100 100 92 72 92 82
88 100 80 82 5 1 4 4 29 35 2 0 0 0 0 0 0 0 0 0 0 0 77 91 100 99 88 19 3 0 84 99 99 100 100 100 100 100 100 100 100 100 100 100 100 100 81 100 99
100 90 99 94 6 5 5 5 40 5 2 0 0 0 0 0 0 0 0 0 0 0 81 28 100 100 98 100 100 16 11 76 89 100 100 100 100 100 100 100 100 100 100 100 100 100 100 98 100
89 99 100 100 11 12 9 35 95 10 2 0 0 0 0 0 0 0 0 0 0 0 6 89 100 100 100 100 99 95 100 85 72 100 100 100 100 100 100 100 100 100 100 100 100 100 92 95 100
100 99 96 75 12 5 26 5 97 12 0 0 0 0 0 0 0 0 0 0 0 0 0 30 100 100 100 100 97 98 100 100 100 100 100 100 100 100 100 100 100 100 100 100 100 100 99 100 100
100 94 100 99 7 5 41 6 100 4 0 0 0 0 0 0 0 0 0 0 0 0 0 45 100 92 100 100 100 100 100 100 100 100 100 100 100 100 100 100 100 100 100 100 100 100 100 100 100
100 100 100 66 7 5 6 14 100 4 0 0 0 0 0 0 0 0 0 0 0 0 0 0 66 100 100 100 100 100 100 100 99 100 100 100 100 100 100 100 100 100 100 100 100 100 100 100 100
100 100 100 100 74 7 6 5 97 2 0 5 0 0 0 0 0 0 0 0 0 0 0 0 5 100 100 100 100 100 100 100 100 100 100 100 100 100 100 100 100 100 100 100 100 100 100 100 100
100 100 98 95 66 98 13 5 79 12 4 62 4 0 0 0 0 0 0 0 0 0 0 0 6 86 100 100 100 100 100 100 100 100 100 100 100 100 100 100 100 100 100 100 100 100 100 100 100
100 100 93 77 98 100 33 5 6 9 2 28 3 11 0 1 0 0 0 0 0 0 0 0 0 92 100 100 100 100 100 100 100 100 100 100 100 100 100 100 100 100 100 100 100 100 100 100 100

GFSSGP_prec_cloud_279.txt.gz
Cloud_Cover
0 0 0 0 1 94 100 100 100 100 100 100 100 80 6 51 38 88 95 100 100 100 100 100 100 100 93 27 98 85 100 98 99 100 100 100 99 99 97 44 91 100 84 8 43 24 4 0 1
0 0 0 0 0 0 41 97 100 100 100 100 100 100 100 72 1 71 80 76 80 100 100 100 100 100 100 90 95 100 100 100 100 100 100 100 99 100 98 14 100 100 51 98 99 90 24 0 66
0 0 0 0 0 0 0 0 0 45 100 89 21 76 80 8 5 80 87 47 50 98 100 97 100 100 100 100 100 100 100 100 100 100 100 100 100 100 95 42 100 100 56 95 83 60 6 0 16
0 0 0 0 0 0 0 0 0 0 0 0 3 6 15 59 4 4 4 9 23 23 100 100 100 100 100 98 100 100 100 100 100 100 100 100 100 100 100 100 100 100 82 86 100 5 22 0 10
0 0 0 0 0 0 0 0 0 0 0 0 0 20 2 0 0 0 0 37 11 0 8 72 99 100 100 100 100 100 100 100 100 100 100 100 100 100 100 100 100 100 100 100 11 5 48 1 3
0 0 0 0 0 0 0 0 0 0 0 0 0 0 28 0 0 0 0 0 0 0 0 0 18 51 100 100 100 100 100 100 100 100 100 100 100 100 100 100 100 100 100 100 71 49 76 54 82
0 0 0 0 0 0 0 0 0 0 0 0 0 0 11 0 0 0 0 0 0 0 0 0 1 3 5 99 100 100 100 100 100 100 100 100 100 100 100 100 100 100 100 100 100 100 100 47 12
1 0 0 0 0 0 0 0 0 0 0 0 0 0 0 0 0 0 0 0 0 0 0 0 0 0 2 21 80 100 100 100 100 100 100 100 100 100 100 100 100 100 100 100 100 100 100 100 99
8 82 0 4 4 2 0 0 0 0 0 0 0 0 0 0 0 0 0 0 0 0 0 0 0 0 0 0 64 100 100 100 100 100 100 100 100 100 100 100 100 100 100 100 100 100 100 100 100
41 100 98 5 3 8 0 0 0 0 0 0 0 0 0 0 0 0 0 0 0 0 0 0 0 0 0 0 0 64 100 100 100 100 100 100 100 100 100 100 100 100 100 100 100 100 100 100 100
6 100 100 2 5 25 0 0 0 0 0 0 0 0 0 0 0 0 0 0 0 0 0 0 0 0 0 0 0 1 98 100 100 100 100 100 100 100 100 100 100 100 100 100 100 100 100 100 100
100 100 81 6 5 5 2 1 0 0 0 0 0 0 0 0 0 0 0 0 0 0 0 0 0 0 0 0 0 73 38 100 100 100 100 100 100 100 100 100 100 100 100 100 100 100 100 100 100
100 100 100 98 34 23 9 4 0 0 0 0 0 0 0 0 0 0 0 0 0 0 0 0 0 0 0 0 0 0 98 41 100 100 100 100 100 100 100 100 100 100 100 100 100 100 100 100 100
100 100 100 94 72 50 88 1 0 0 0 0 0 0 0 0 0 0 0 0 0 0 0 0 0 0 0 0 4 3 32 90 100 100 100 100 100 100 100 100 100 100 100 100 100 100 100 100 100
100 100 9 61 100 70 89 3 0 0 0 0 0 0 0 0 0 0 0 0 0 0 0 0 0 0 0 0 5 5 45 100 100 100 100 100 100 100 100 100 100 100 100 100 100 100 100 100 100
100 85 5 99 100 93 100 14 0 0 0 0 0 0 0 0 0 0 0 0 0 0 0 0 0 0 0 1 5 5 42 100 100 100 100 100 100 100 100 100 100 100 100 100 100 100 100 100 100
100 84 100 88 27 52 78 20 0 0 0 0 0 0 0 0 0 0 0 0 0 0 0 0 3 3 0 5 9 20 54 90 100 98 100 100 100 100 100 100 100 100 100 100 98 100 100 100 100
100 55 100 60 36 98 98 11 0 4 5 0 0 0 0 0 0 0 0 0 0 0 0 0 0 5 0 1 80 96 97 100 100 99 100 100 100 100 100 100 100 100 100 100 99 99 93 98 100
100 33 100 5 53 51 100 27 0 5 2 0 0 0 0 0 0 0 0 0 0 0 25 5 50 0 0 0 41 83 51 100 100 87 100 100 100 100 100 100 100 100 100 100 96 97 100 91 100
100 95 97 6 66 78 100 14 5 48 0 0 0 0 0 0 0 0 0 0 0 0 4 65 81 11 2 0 0 5 40 99 97 87 100 100 100 100 100 100 100 100 100 100 100 100 99 91 95
77 100 90 51 17 64 96 10 5 97 2 0 0 0 0 0 0 0 0 0 0 0 6 42 100 98 61 12 0 0 79 85 100 66 94 100 100 100 100 100 100 100 100 100 100 88 100 98 58
26 74 50 74 40 76 75 6 5 97 9 0 0 0 0 0 0 0 0 0 0 0 3 80 100 94 100 82 38 5 92 100 100 100 91 100 100 100 100 100 100 100 100 100 100 100 100 100 53
29 62 14 84 100 22 54 5 0 11 5 0 0 0 0 0 0 0 0 0 0 0 0 88 100 88 94 100 100 87 23 46 16 12 100 100 100 100 100 100 100 100 100 100 100 100 100 100 99
96 87 84 90 100 56 6 5 0 4 5 0 0 0 0 0 0 0 0 0 0 0 10 100 100 96 100 97 94 5 28 10 93 100 100 100 100 100 100 100 100 100 100 100 100 100 100 100 100
14 73 88 70 100 100 70 5 5 1 5 0 0 0 0 0 0 0 0 0 0 0 0 85 100 100 100 97 96 93 63 92 100 100 100 100 100 100 100 100 100 100 100 100 100 100 100 99 100
5 71 41 81 100 100 85 5 5 1 5 0 0 0 0 0 0 0 0 0 0 0 0 87 97 100 100 93 99 100 100 84 61 100 100 100 95 100 100 100 100 100 100 100 100 100 100 100 100
97 28 93 77 100 100 100 15 8 2 5 0 0 0 0 0 0 0 0 0 0 0 0 52 96 100 100 100 98 98 86 44 34 87 100 100 96 100 100 100 100 100 100 100 100 100 100 100 100
96 84 83 33 98 100 100 68 58 5 5 0 1 0 0 0 0 0 0 0 0 0 0 35 100 100 100 100 100 91 100 100 100 95 100 100 100 100 100 100 100 100 100 100 100 100 100 100 100
47 87 76 32 85 100 100 100 54 36 5 0 2 0 0 0 0 0 0 0 0 0 0 0 100 100 100 100 100 100 100 100 100 82 72 47 98 100 100 100 100 100 100 100 100 100 100 100 100
55 87 58 73 59 78 99 88 87 28 5 2 0 0 0 0 0 0 0 0 0 0 0 0 1 100 100 100 100 100 100 100 100 100 100 100 100 100 100 100 100 100 100 100 100 100 100 100 100

GFSSGP_prec_cloud_282.txt.gz
Cloud_Cover
0 0 0 0 0 0 0 1 83 100 100 100 94 100 37 23 40 36 54 60 39 92 100 100 100 100 100 99 73 100 100 100 92 11 100 100 86 100 100 100 100 100 100 100 99 36 45 3 0
0 0 0 0 0 0 0 0 0 0 9 25 7 5 39 92 61 28 74 29 1 0 100 100 100 100 100 100 100 100 93 100 100 82 99 100 100 100 100 100 88 91 100 100 100 72 5 3 0
6 0 0 0 0 0 0 0 0 0 0 0 1 3 5 5 5 6 22 5 2 4 54 100 100 100 100 100 100 100 100 99 100 100 100 100 100 100 100 100 100 100 100 53 70 64 5 3 0
5 0 0 0 0 0 0 0 0 0 0 0 0 0 0 0 0 0 0 0 0 0 0 0 60 100 100 100 100 90 100 100 100 100 100 100 100 100 100 100 100 100 100 100 59 79 5 48 0
57 17 5 2 0 0 0 0 0 0 0 0 0 64 0 0 0 0 0 0 0 0 0 0 0 20 92 97 100 100 62 100 100 100 100 100 100 100 100 100 100 100 100 100 100 83 5 20 5
100 28 56 8 0 0 0 0 0 0 0 0 0 0 16 0 0 0 0 0 0 0 0 0 0 0 2 65 100 100 100 100 100 100 100 100 100 100 100 100 100 100 100 100 100 100 86 7 21
100 97 70 61 100 12 0 0 0 0 0 0 0 0 12 0 0 0 0 0 0 0 0 0 0 0 0 1 97 100 100 100 100 100 100 100 100 100 100 100 100 100 100 100 100 100 100 69 92
100 100 30 63 100 98 5 3 0 0 0 0 0 0 0 0 0 0 0 0 0 0 0 0 0 0 0 0 4 100 100 100 100 100 100 100 100 100 100 100 100 100 100 100 100 100 100 100 100
100 100 23 81 100 87 66 5 0 0 0 0 0 0 0 0 0 0 0 0 0 0 0 0 0 0 0 0 0 84 100 100 100 100 100 100 100 100 100 100 100 100 100 100 100 100 100 100 100
100 100 100 100 100 100 29 5 3 1 2 0 0 0 0 0 0 0 0 0 0 0 0 0 0 0 0 0 0 0 87 100 100 100 100 100 100 100 100 100 100 100 100 100 100 100 100 100 100
100 100 100 100 100 100 90 8 5 3 0 0 0 0 0 0 0 0 0 0 0 0 0 0 0 0 0 0 0 1 1 90 100 100 100 100 100 100 100 100 100 100 100 100 100 100 100 100 100
100 100 100 77 100 100 100 78 5 3 0 0 0 0 0 0 0 0 0 0 0 0 0 0 0 0 0 0 0 0 0 11 100 100 100 100 100 100 100 100 100 100 100 100 100 100 100 100 100
100 100 100 100 100 80 100 98 6 5 0 0 0 0 0 0 0 0 0 0 0 0 0 0 0 0 0 0 0 0 0 1 75 98 100 100 100 100 100 100 100 100 100 100 100 100 100 100 100
100 100 100 100 100 100 100 64 5 20 5 0 0 0 0 0 0 0 0 0 0 0 0 0 0 0 0 0 0 4 4 2 100 100 100 100 100 100 100 100 100 100 100 100 100 100 100 100 100
100 84 100 100 81 100 24 57 65 27 5 0 0 0 0 0 0 0 0 0 0 0 0 0 0 0 0 0 0 4 5 52 100 100 100 100 100 100 100 100 100 100 100 100 100 100 100 100 100
98 68 38 51 100 100 43 58 57 68 5 0 0 0 0 0 0 0 0 0 0 0 0 0 2 0 0 0 0 4 5 18 100 100 100 100 100 100 100 100 100 100 100 100 100 100 100 100 100
73 48 5 15 100 99 88 99 62 68 5 2 0 0 0 0 0 0 0 0 0 0 0 0 5 3 0 0 0 4 5 40 100 100 100 100 100 100 100 100 100 100 100 100 100 100 100 100 100
68 15 65 19 100 100 100 100 22 62 5 1 0 0 0 0 0 0 0 0 0 0 0 0 46 8 0 0 0 2 46 59 100 100 100 100 100 100 100 100 100 100 100 100 100 100 100 100 100
5 8 60 65 100 84 17 88 49 12 5 0 0 0 0 0 0 0 0 0 0 0 0 0 72 5 5 4 0 4 5 31 100 100 100 100 100 100 100 100 100 100 100 100 100 100 100 100 100
12 9 100 100 100 100 100 100 46 10 5 4 0 0 0 0 0 0 0 0 0 0 2 16 100 84 100 91 3 6 99 72 100 100 100 100 97 100 100 100 100 100 100 100 100 100 100 100 100
89 30 85 100 72 100 100 83 88 23 5 5 0 0 0 0 0 0 0 0 0 0 8 100 99 100 100 100 97 0 72 100 98 100 100 100 100 100 100 100 100 100 100 100 100 100 100 100 100
87 68 80 95 85 100 100 100 72 56 5 5 0 0 0 0 0 0 0 0 0 0 79 100 94 100 74 100 100 25 66 100 78 100 100 100 100 100 100 100 100 100 100 100 100 100 100 100 93
23 45 75 93 91 100 100 100 100 94 20 5 5 0 0 0 0 0 0 0 0 0 81 68 100 97 93 98 89 75 3 100 40 95 100 100 100 100 100 100 100 100 100 100 100 100 100 100 100
5 6 12 100 99 100 96 100 100 98 62 5 5 0 0 0 0 0 0 0 0 0 81 100 22 5 99 42 5 35 8 68 22 93 100 100 100 100 100 100 100 100 100 100 100 100 100 100 100
5 5 47 85 86 100 99 100 100 90 51 5 5 0 0 0 0 0 0 0 0 0 9 100 83 98 70 18 100 8 2 0 85 100 100 100 100 100 100 100 100 100 100 100 100 100 100 100 100
5 5 32 6 98 100 100 100 92 77 36 5 5 3 0 0 0 0 0 0 0 0 2 79 100 94 100 100 100 28 6 80 100 100 100 100 100 100 100 100 100 100 100 100 100 100 100 100 100
6 5 5 38 80 100 100 100 100 100 59 5 4 5 0 0 0 0 0 0 0 0 0 5 98 100 100 100 100 100 91 100 100 100 100 100 100 100 100 100 100 100 100 100 100 100 100 100 100
80 5 5 22 56 100 97 100 91 100 41 11 5 5 4 0 0 0 0 0 0 0 0 4 92 100 100 100 100 92 98 95 36 86 100 100 100 100 100 100 100 100 100 100 100 100 100 100 100
100 42 52 14 15 92 100 58 6 79 32 60 5 5 5 4 0 0 0 0 0 0 0 0 93 98 100 100 100 100 66 97 98 92 77 100 100 100 100 100 100 100 100 100 100 100 100 100 100
100 100 18 37 33 71 84 50 72 13 29 8 5 5 5 5 1 0 0 0 0 0 0 0 0 30 89 100 100 100 100 100 98 97 84 81 92 100 100 100 100 100 100 100 100 100 100 100 100

GFSSGP_prec_cloud_288.txt.gz
Cloud_Cover
48 100 46 1 0 0 0 0 0 0 0 0 0 0 0 0 2 5 4 5 63 61 58 67 14 96 98 91 100 100 6 56 68 20 6 76 58 96 100 100 100 100 100 100 96 100 100 89 99
41 100 100 44 1 0 0 0 0 0 0 0 0 0 0 0 0 0 1 0 3 4 12 56 24 87 100 100 100 100 100 7 22 33 31 6 100 100 100 98 98 99 100 100 92 93 100 100 6
44 77 100 57 5 5 2 0 0 0 0 0 0 0 0 0 0 0 0 0 0 0 0 1 0 4 41 100 100 92 100 90 4 30 27 8 82 100 100 100 100 100 100 100 100 89 96 100 100
100 92 100 100 100 71 17 5 0 5 5 4 4 0 0 0 0 0 0 0 0 0 0 0 0 0 7 82 96 100 100 88 98 3 97 61 17 100 100 100 100 100 100 100 100 100 99 100 100
100 100 100 100 100 100 19 18 48 18 6 5 5 0 0 0 0 0 0 0 0 0 0 0 0 0 0 1 96 100 100 94 94 98 100 88 7 97 100 100 100 100 100 100 100 100 100 100 100
100 100 100 100 100 100 80 92 100 89 66 43 7 5 0 0 0 0 0 0 0 0 0 0 0 0 0 0 7 22 100 100 99 100 57 100 89 99 100 98 100 100 100 100 100 100 100 100 100
100 100 94 100 100 100 100 100 55 98 32 79 16 0 0 2 0 0 0 0 0 0 0 0 0 0 0 0 0 0 25 100 100 100 100 100 100 100 100 100 100 100 100 100 100 100 100 100 100
100 100 100 100 100 100 100 84 54 78 31 64 5 5 4 5 1 0 0 0 0 0 0 0 0 0 0 0 0 0 0 100 100 100 100 99 100 100 100 100 100 100 100 100 100 100 100 100 100
100 100 100 100 100 100 100 99 80 99 95 64 5 5 5 5 0 4 0 0 0 0 0 0 0 0 0 0 0 0 0 16 46 99 100 94 92 100 100 99 100 100 100 100 100 100 100 100 100
100 100 100 100 100 100 100 100 100 89 6 86 9 6 25 9 4 4 0 0 0 0 0 0 0 0 0 0 0 0 0 0 37 100 100 100 99 100 100 100 100 100 100 100 100 100 100 100 100
100 88 100 100 100 100 100 100 48 22 37 100 6 52 48 5 0 2 0 0 0 0 0 0 0 0 0 0 0 0 0 6 0 82 100 100 93 100 100 100 100 100 100 100 100 100 100 100 100
87 100 100 100 100 100 100 100 52 16 61 52 6 63 67 5 5 2 0 0 0 0 0 0 0 0 0 0 0 0 0 0 0 11 36 99 100 100 100 100 100 100 100 100 100 100 100 100 100
100 100 99 82 40 100 100 27 43 48 80 91 100 100 100 7 5 0 0 0 0 0 0 0 0 0 0 0 0 0 0 0 0 12 39 77 90 97 100 100 100 100 100 100 100 100 100 100 100
5 76 16 99 100 69 36 50 5 5 49 96 100 100 94 5 5 1 0 0 0 0 0 0 0 0 4 4 0 0 0 0 0 1 18 30 100 88 100 100 100 100 100 100 100 100 100 100 100
26 8 5 7 5 5 7 5 46 6 84 100 100 100 77 5 5 2 0 0 0 0 0 0 0 2 2 60 26 3 5 0 0 9 33 99 99 86 100 100 100 100 100 100 100 100 100 100 100
99 7 5 5 5 5 5 5 32 69 94 100 100 100 78 5 5 2 0 0 0 0 0 0 0 0 3 1 83 85 12 5 3 91 97 100 100 93 100 100 100 100 100 100 100 100 100 100 100
6 18 20 20 5 2 4 5 100 100 100 100 100 100 100 5 23 0 0 0 0 0 0 0 0 3 5 1 40 42 35 8 36 75 67 99 88 93 100 100 100 100 100 100 100 100 100 100 100
5 82 5 36 5 5 4 4 99 100 100 100 100 100 100 5 46 0 0 0 0 0 0 0 0 5 5 4 5 5 21 5 0 21 100 100 99 63 100 100 100 100 100 100 100 100 100 100 100
13 8 5 5 5 5 5 5 5 96 100 100 100 100 100 10 17 0 0 0 0 0 0 5 0 15 100 56 5 78 10 5 2 36 100 100 88 49 100 100 100 100 100 100 100 100 100 100 100
50 13 5 5 5 5 4 5 5 10 87 92 100 100 100 15 85 0 0 0 0 0 0 0 1 5 45 95 5 46 17 56 32 53 42 100 91 100 100 100 100 100 100 100 100 100 100 100 100
44 36 9 5 5 2 4 22 5 5 6 38 100 100 100 44 71 0 0 0 0 0 0 0 5 5 68 98 8 46 11 4 68 60 100 100 96 100 100 100 100 100 100 100 100 100 100 100 100
5 38 8 5 5 5 5 95 5 5 5 74 100 100 100 92 17 5 0 0 0 0 0 0 3 73 35 100 6 5 27 66 5 96 100 100 100 100 100 100 100 100 100 100 100 100 100 100 100
23 8 5 5 5 5 5 90 6 5 5 99 100 100 100 100 5 3 0 0 0 0 0 0 2 62 64 99 5 5 6 1 10 43 81 94 100 100 100 100 100 100 100 100 100 100 100 100 100
84 92 44 38 8 5 5 68 6 5 5 60 100 100 100 100 9 5 0 0 0 0 0 0 0 78 66 80 11 5 2 16 16 14 100 100 100 100 100 100 100 100 100 100 100 100 100 100 100
71 86 98 92 25 5 5 14 23 5 5 5 92 100 100 100 42 7 0 0 0 0 0 0 0 70 78 84 5 5 2 2 15 7 35 100 100 100 99 99 100 100 100 100 100 100 100 100 100
97 99 100 100 100 76 6 5 69 5 5 43 29 100 100 100 17 42 5 3 0 0 0 0 0 3 98 5 9 59 45 12 67 74 68 100 100 100 100 100 100 100 100 100 100 100 100 100 100
100 100 100 100 100 100 82 5 5 10 7 37 6 80 100 100 71 94 5 5 4 0 0 0 0 0 12 98 23 32 100 80 100 100 100 100 100 100 100 100 100 100 100 100 100 100 100 100 100
100 100 100 61 100 100 100 5 5 44 8 5 5 52 100 100 99 100 13 5 5 1 0 0 0 0 0 100 92 76 100 87 92 100 100 100 100 100 100 100 100 100 100 100 100 100 100 100 100
74 99 98 94 100 100 94 25 5 39 30 5 52 6 100 100 100 98 82 5 5 4 0 0 0 0 0 98 100 98 100 100 100 92 100 100 94 100 100 100 100 100 100 100 100 100 100 100 100
65 62 100 94 100 100 6 66 5 70 11 5 92 5 71 100 100 73 100 6 1 5 0 0 0 0 9 98 19 100 100 100 100 100 100 100 100 100 100 100 100 100 100 100 100 100 100 100 100

GFSSGP_prec_cloud_291.txt.gz
Cloud_Cover
100 100 51 5 13 5 4 1 0 0 0 0 0 0 0 0 0 0 0 0 0 3 5 3 2 7 98 100 100 96 97 47 14 5 2 7 8 77 100 59 25 28 26 100 100 100 100 100 100
100 100 100 88 20 10 54 14 5 0 0 0 0 1 0 0 0 0 0 0 0 0 0 0 1 1 4 86 68 99 100 78 20 20 5 2 14 5 50 100 100 97 100 100 100 100 100 100 100
71 24 92 100 11 100 54 99 42 3 4 4 5 5 4 0 0 0 0 0 0 0 0 0 0 0 0 5 92 90 90 100 100 70 14 62 9 8 5 100 100 100 100 100 100 100 100 100 100
100 100 90 100 100 100 75 100 71 5 29 5 18 5 12 5 0 0 0 0 0 0 0 0 0 0 0 0 6 60 84 89 98 82 97 96 38 66 34 68 100 100 100 100 100 90 100 99 10
100 100 98 100 100 100 100 100 100 58 68 35 16 5 5 5 0 0 0 0 0 0 0 0 0 0 0 0 0 2 8 81 99 100 90 100 89 47 95 49 100 100 100 100 100 100 100 100 100
48 25 92 100 100 100 100 100 100 100 8 5 5 5 4 0 0 0 0 0 0 0 0 0 0 0 0 0 0 0 0 62 91 100 95 97 75 95 100 88 100 100 100 100 100 100 100 100 100
82 8 92 73 100 100 98 100 100 90 30 66 64 47 4 5 4 0 0 0 0 0 0 0 0 0 0 0 0 0 0 0 28 98 100 100 100 84 100 96 100 100 100 100 100 100 100 100 100
8 53 97 52 53 100 100 100 100 100 100 100 100 98 16 5 5 0 0 0 0 0 0 0 0 0 0 0 0 0 0 0 0 44 87 100 100 100 100 100 100 100 100 100 100 100 100 100 100
27 20 82 34 99 75 82 100 100 100 100 31 12 40 8 5 5 5 5 0 0 0 0 0 0 0 0 0 0 0 0 0 0 11 34 100 100 95 100 100 100 100 100 100 100 100 100 99 100
14 5 12 40 48 11 85 97 47 82 57 6 7 5 9 6 5 10 8 5 0 0 0 0 0 0 0 0 0 0 0 0 0 0 16 78 100 100 100 100 100 100 100 100 100 100 100 100 100
5 5 9 24 5 22 5 92 100 85 28 5 5 16 87 75 54 49 5 5 0 0 0 0 0 0 0 0 0 0 0 0 0 0 17 100 100 100 100 100 100 100 100 100 100 100 100 100 100
5 4 38 6 5 5 50 23 18 5 5 5 5 38 58 100 95 30 5 5 0 0 0 0 0 0 0 0 0 0 5 4 0 0 30 94 64 100 100 100 100 100 100 100 100 100 100 100 100
4 5 77 5 5 4 5 2 3 3 5 5 9 72 98 100 79 30 17 5 0 0 0 0 0 0 0 0 0 0 0 53 3 0 50 90 78 73 100 100 100 100 100 100 100 100 100 100 100
5 90 5 8 34 5 5 1 0 3 46 98 100 97 98 100 100 77 31 1 0 0 0 0 0 0 0 0 0 4 0 6 98 13 0 100 72 31 100 100 100 100 100 100 100 100 100 100 100
12 81 5 58 75 84 6 5 0 4 5 42 100 70 87 100 96 70 6 0 0 0 0 0 0 0 0 0 10 5 5 0 62 100 36 84 100 81 100 92 100 100 100 100 100 100 100 100 100
6 88 56 97 29 82 16 10 0 1 5 97 100 28 59 100 59 100 7 0 0 0 0 0 0 0 0 0 4 24 5 0 53 52 99 100 100 82 100 85 100 100 100 100 100 100 100 100 100
37 34 57 48 39 5 5 5 0 5 5 25 35 5 38 8 14 100 5 0 0 0 0 0 0 0 1 4 5 40 7 1 5 4 76 100 100 99 61 71 100 100 100 100 100 100 100 100 100
21 8 36 78 21 5 5 5 5 4 4 5 5 5 73 11 46 100 6 0 0 0 0 0 0 2 5 5 9 33 1 29 5 24 64 35 100 100 52 96 100 100 100 100 100 100 100 100 100
6 12 6 76 48 5 5 0 0 5 5 5 5 16 96 10 100 100 14 0 0 0 0 0 0 2 5 5 24 0 4 63 19 26 14 2 100 100 87 100 100 100 100 100 100 100 100 100 100
9 5 7 26 11 5 5 0 0 0 3 4 5 27 98 68 100 100 66 0 0 0 0 0 0 5 5 8 91 4 7 8 14 43 0 57 100 100 96 100 100 100 100 100 100 100 100 100 100
11 5 5 27 5 5 5 5 0 0 2 5 6 51 100 46 100 100 38 3 0 0 0 0 0 5 5 26 5 5 5 2 14 7 24 61 95 100 100 100 100 100 100 100 100 100 100 100 100
20 8 5 5 46 21 5 5 5 0 0 5 5 42 100 14 100 100 81 3 0 0 0 0 0 5 5 2 5 5 20 66 9 25 99 100 100 100 100 100 100 100 100 100 100 100 100 100 100
76 48 7 30 20 98 96 59 5 5 2 5 6 74 98 42 100 100 99 4 5 0 0 0 0 5 5 5 4 7 18 14 4 24 14 17 94 100 100 100 100 100 100 100 100 99 100 100 100
100 100 81 38 50 100 100 100 100 5 5 2 5 5 29 100 100 100 97 11 5 0 0 0 0 1 5 4 36 17 33 32 14 16 32 47 100 100 100 100 100 100 100 100 100 100 100 100 100
100 89 100 100 93 100 100 100 42 11 5 3 3 5 28 94 94 100 97 91 7 1 0 0 0 0 5 5 65 42 100 97 30 43 99 92 93 95 100 100 100 100 100 100 100 100 100 100 100
100 100 100 92 100 100 100 16 23 26 6 5 5 5 5 46 99 100 97 100 5 4 0 0 0 0 2 5 57 38 100 99 70 36 81 96 100 98 100 100 100 100 100 100 100 100 100 100 100
100 100 100 100 100 100 95 63 10 38 65 5 2 5 5 5 100 100 76 100 85 11 0 0 0 0 0 6 82 47 99 100 90 100 82 100 95 86 100 100 100 100 100 100 100 100 100 100 100
100 100 100 100 97 95 99 84 5 73 100 13 0 2 3 5 75 100 98 100 85 17 8 0 0 0 0 68 86 100 97 93 98 100 100 100 100 100 100 100 100 100 100 100 100 100 100 100 100
100 100 100 100 100 54 12 74 5 5 100 97 3 5 32 5 26 54 100 100 100 13 9 0 0 0 40 100 100 30 74 59 79 100 100 100 100 100 100 100 99 100 100 100 100 100 100 100 100
100 98 100 100 100 6 25 84 5 2 100 96 3 5 41 5 5 79 100 85 100 69 12 9 0 0 73 100 77 49 97 100 99 97 100 100 100 100 100 100 100 100 100 100 100 100 100 100 100